Meath Environmental Platform

Observations for Trim Patrick St

Time AQI Temp °C Hum % Pres Pa CO μg/m³ H₂S μg/m³ NO μg/m³ NO₂ μg/m³ O₃ μg/m³ SO₂ μg/m³ PM1 μg/m³ PM2.5 μg/m³ PM10 μg/m³
Monday 3 August 2026
22:15 3 17.2 80 38,460 0.04 12.53 0.42 28.47 29.64 0.43 2 5.92 6.51
22:14 3 17.2 79 38,460 0.03 14.72 0.58 53.39 24.53 0 2.86 5.97 6.56
22:13 3 17.2 79 38,460 0.03 13.86 0.53 47.31 29.08 0 3.71 7.39 8.13
22:12 3 17.2 78 38,460 0.02 13.76 0.66 61.47 48.19 0 2.86 6.74 7.41
22:11 3 17.3 80 38,460 0.02 13 0.59 33.42 25.57 0.27 2.86 5.95 6.54
22:10 3 17.3 79 38,460 0.01 14.36 0.78 49.71 44.14 0 2.86 6.01 6.61
22:09 3 17.3 78 38,460 0.02 14.75 0.77 47.9 20.74 0 4.57 7.44 8.18
22:08 3 17.3 79 38,460 0.04 14.65 0.78 57.28 47.11 0.15 2 5.97 6.56
22:07 3 17.4 79 38,460 0.02 14.54 0.82 40.79 20.17 0.83 3.71 7.39 8.13
22:06 3 17.4 79 38,460 0.03 15.33 0.91 47.53 23.34 0.23 2.86 6.01 6.61
22:03 3 17.4 78 38,460 0 12.92 0.84 38.2 25.16 0 3.71 6.75 7.43
21:58 4 17.6 77 38,460 0.02 14.83 0.78 48.95 43.54 0.91 3.71 6.15 6.76
21:57 3 17.6 76 38,460 0.01 15.59 0.82 52.44 28.39 0.8 2.86 6.19 6.81
21:56 4 17.6 76 38,460 0 13.6 0.83 44.66 20.05 0.73 3.71 7.57 8.33
21:55 4 17.6 77 38,460 0 14.7 0.66 47.94 30.27 0.82 2.86 7.54 8.29
21:54 4 17.6 77 38,460 0 14.42 0.61 45.75 23.29 0.31 3.71 6.86 7.54
21:53 4 17.7 76 38,460 0 15.49 0.66 38.54 22.24 1.39 2.86 6.16 6.77
21:52 4 17.7 74 38,460 0 16.48 0.73 57.57 62.37 0.76 2.86 7 7.7
21:51 3 17.8 76 38,460 0 16.12 0.44 48.74 32.75 1.38 3.71 7.63 8.39
21:50 4 17.7 74 38,460 0 15.57 0.63 46.16 29.32 0.53 2.86 7 7.7